Погода в Мокоа

Колумбия     1°08′52″N   76°38′53″W
темп.,
°C
ветер,
м/с
пор.,
м/с
влажн.,
%
обл.,
%
осадки,
мм/ч
давл.,
гПа
погр.,
м
10 мая, пн
пн1001:00+13ююз019994 0.9 101998
04:00+12юв1299100 0.1 1018125
07:00+13вюв12100100 0.3 1019184
10:00+13вюв13100100 3.4 1021180
13:00+13вюв12100100 5.4 1018163
16:00+13вюв1299100 0.3 1016154
19:00+13зюз019999 0.6 1018122
22:00+13ю1199100 0.3 1020107
11 мая, вт
вт1101:00+13зюз119899 0.8 1018115
04:00+13з119786 0.1 101767
07:00+13юз019769 0.5 101876
10:00+13вюв1199100 0.4 1020148
13:00+13юв12100100 1.8 1018169
16:00+14в009599 0.3 1015198
19:00+12зсз219835 0.4 101821
22:00+13з119594 0.0 102023
12 мая, ср
ср1201:00+13з119587 0.0 101824
04:00+11зсз219629 0.0 101724
07:00+14з119071 0.0 101954
10:00+15вюв228672 0.3 1020512
13:00+14вюв1197100 1.1 1018183
16:00+14ююв019472 0.2 1016183
19:00+12зсз119826 0.4 101817
22:00+11зсз229443 0.0 102034
13 мая, чт
чт1301:00+13з119293 0.1 101825
04:00+13з119598 0.4 101841
07:00+13ю019458 0.4 1019160
10:00+14вюв0197100 0.4 1020137
13:00+18ююв227424 0.6 1017776
16:00+16вюв228690 0.8 1015615
19:00+14сз119858 1.0 101718
22:00+12зсз219622 0.0 101927
14 мая, пт
пт1401:00+13зсз119598 0.1 101828
04:00+13зсз119661 0.2 101718
07:00+13зсз119681 0.4 101851
10:00+16вюв229247 0.8 1019419
13:00+17юв2294100 3.7 1016625
16:00+17вюв119075 1.8 1014480
19:00+14з009952 2.4 101619
22:00+13зсз119787 0.7 101921